| time (UTC) | temp C | wind direction | speed KPH | gust KPH | rain 1hr cm | rain 24hr cm | rain mn cm | humidity % | barometer mb |
| 20260506084742 | 12 | 143 | 3.2 | 4.8 | 0.00 | 0.00 | 0.00 | 85 | 1019.1 |
| 20260506084239 | 12 | 167 | 0.0 | 3.2 | 0.00 | 0.00 | 0.00 | 84 | 1019.2 |
| 20260506083736 | 12 | 198 | 0.0 | 3.2 | 0.00 | 0.00 | 0.00 | 84 | 1019.3 |
| 20260506083233 | 13 | 197 | 3.2 | 3.2 | 0.00 | 0.00 | 0.00 | 83 | 1019.5 |
| 20260506082731 | 13 | 149 | 0.0 | 1.6 | 0.00 | 0.00 | 0.00 | 83 | 1019.2 |
| 20260506082226 | 13 | 353 | 3.2 | 6.4 | 0.00 | 0.00 | 0.00 | 82 | 1019.3 |
| 20260506081724 | 13 | 0 | 4.8 | 11.3 | 0.00 | 0.00 | 0.00 | 82 | 1019.3 |
| 20260506081221 | 13 | 242 | 1.6 | 6.4 | 0.00 | 0.00 | 0.00 | 82 | 1019.3 |
| 20260506080719 | 13 | 214 | 0.0 | 3.2 | 0.00 | 0.00 | 0.00 | 82 | 1019.2 |
| 20260506080215 | 13 | 172 | 0.0 | 3.2 | 0.00 | 0.00 | 0.00 | 82 | 1019.2 |
| 20260506073159 | 13 | 296 | 0.0 | 4.8 | 0.00 | 0.00 | 0.00 | 82 | 1019.0 |
| 20260506072651 | 13 | 354 | 3.2 | 4.8 | 0.00 | 0.00 | 0.00 | 82 | 1018.9 |
| 20260506072149 | 13 | 327 | 4.8 | 4.8 | 0.00 | 0.00 | 0.00 | 82 | 1019.1 |
| 20260506071646 | 13 | 258 | 4.8 | 6.4 | 0.00 | 0.00 | 0.00 | 81 | 1018.9 |
| 20260506071143 | 13 | 265 | 0.0 | 6.4 | 0.00 | 0.00 | 0.00 | 81 | 1018.9 |
| 20260506070640 | 13 | 350 | 3.2 | 8.0 | 0.00 | 0.00 | 0.00 | 81 | 1018.7 |
| 20260506070137 | 13 | 196 | 3.2 | 6.4 | 0.00 | 0.00 | 0.00 | 81 | 1018.9 |
| 20260506062114 | 13 | 129 | 1.6 | 3.2 | 0.00 | 0.23 | 0.23 | 82 | 1018.4 |
| 20260506061610 | 13 | 135 | 1.6 | 3.2 | 0.00 | 0.23 | 0.23 | 82 | 1018.5 |
| 20260506061108 | 13 | 347 | 0.0 | 3.2 | 0.00 | 0.23 | 0.23 | 82 | 1018.4 |
| 20260506060607 | 13 | 170 | 6.4 | 6.4 | 0.00 | 0.23 | 0.23 | 81 | 1018.5 |
| 20260506051035 | 13 | 64 | 0.0 | 3.2 | 0.00 | 0.23 | 0.23 | 82 | 1018.2 |
| 20260506050532 | 13 | 235 | 3.2 | 4.8 | 0.00 | 0.23 | 0.23 | 83 | 1018.2 |
| 20260506045023 | 13 | 216 | 4.8 | 9.7 | 0.00 | 0.23 | 0.23 | 84 | 1018.2 |
| 20260506044521 | 13 | 230 | 6.4 | 12.9 | 0.00 | 0.23 | 0.23 | 84 | 1018.0 |
| 20260506044017 | 13 | 218 | 3.2 | 6.4 | 0.00 | 0.23 | 0.23 | 84 | 1018.1 |
| 20260506043515 | 13 | 130 | 0.0 | 3.2 | 0.00 | 0.23 | 0.23 | 83 | 1018.1 |
| 20260506043014 | 13 | 152 | 3.2 | 4.8 | 0.00 | 0.23 | 0.23 | 83 | 1018.0 |
| 20260506042512 | 13 | 180 | 3.2 | 4.8 | 0.00 | 0.23 | 0.23 | 82 | 1017.8 |
| 20260506042009 | 13 | 258 | 4.8 | 4.8 | 0.00 | 0.23 | 0.23 | 82 | 1017.7 |
| 20260506041509 | 13 | 122 | 3.2 | 8.0 | 0.00 | 0.23 | 0.23 | 81 | 1017.6 |
| 20260506041005 | 13 | 290 | 3.2 | 8.0 | 0.00 | 0.23 | 0.23 | 81 | 1017.8 |
| 20260506040503 | 13 | 213 | 1.6 | 6.4 | 0.00 | 0.23 | 0.23 | 82 | 1017.6 |
| 20260506035958 | 13 | 204 | 3.2 | 8.0 | 0.00 | 0.23 | 0.23 | 82 | 1017.5 |
| 20260506035455 | 13 | 230 | 3.2 | 4.8 | 0.00 | 0.23 | 0.23 | 82 | 1017.4 |
| 20260506034952 | 13 | 203 | 3.2 | 12.9 | 0.00 | 0.23 | 0.23 | 82 | 1017.4 |
| 20260506034449 | 13 | 220 | 9.7 | 16.1 | 0.00 | 0.23 | 0.23 | 82 | 1017.1 |
| 20260506033946 | 13 | 249 | 3.2 | 17.7 | 0.00 | 0.23 | 0.23 | 81 | 1017.0 |
| 20260506033444 | 13 | 205 | 3.2 | 11.3 | 0.00 | 0.23 | 0.23 | 81 | 1017.0 |
| 20260506032940 | 13 | 218 | 3.2 | 9.7 | 0.00 | 0.23 | 0.23 | 81 | 1017.0 |
| 20260506032438 | 13 | 263 | 8.0 | 14.5 | 0.00 | 0.23 | 0.23 | 81 | 1016.9 |
| 20260506031934 | 13 | 294 | 0.0 | 8.0 | 0.00 | 0.23 | 0.23 | 80 | 1016.8 |
| 20260506031431 | 13 | 292 | 6.4 | 14.5 | 0.00 | 0.23 | 0.23 | 81 | 1016.8 |
| 20260506030929 | 13 | 251 | 6.4 | 6.4 | 0.00 | 0.23 | 0.23 | 81 | 1016.8 |
| 20260506030427 | 13 | 323 | 6.4 | 8.0 | 0.00 | 0.23 | 0.23 | 80 | 1017.0 |
| 20260506025923 | 13 | 184 | 6.4 | 16.1 | 0.00 | 0.23 | 0.23 | 80 | 1016.7 |
| 20260506025421 | 13 | 236 | 14.5 | 16.1 | 0.00 | 0.23 | 0.23 | 81 | 1016.5 |
| 20260506024917 | 13 | 205 | 3.2 | 14.5 | 0.00 | 0.23 | 0.23 | 81 | 1016.7 |
| 20260506024414 | 13 | 219 | 8.0 | 17.7 | 0.00 | 0.23 | 0.23 | 82 | 1016.9 |
| 20260506023910 | 13 | 218 | 3.2 | 14.5 | 0.00 | 0.23 | 0.23 | 81 | 1016.5 |
| 20260506023407 | 13 | 146 | 8.0 | 12.9 | 0.00 | 0.23 | 0.23 | 80 | 1016.6 |
| 20260506022903 | 13 | 225 | 9.7 | 14.5 | 0.00 | 0.23 | 0.23 | 80 | 1016.5 |
| 20260506022401 | 13 | 213 | 12.9 | 20.9 | 0.00 | 0.23 | 0.23 | 80 | 1016.5 |
| 20260506021859 | 13 | 225 | 4.8 | 20.9 | 0.00 | 0.23 | 0.23 | 81 | 1016.6 |
| 20260506021356 | 13 | 235 | 12.9 | 24.1 | 0.00 | 0.23 | 0.23 | 81 | 1016.5 |
| 20260506020853 | 14 | 171 | 3.2 | 17.7 | 0.00 | 0.23 | 0.23 | 81 | 1016.4 |
| 20260506020351 | 14 | 204 | 8.0 | 20.9 | 0.00 | 0.23 | 0.23 | 80 | 1016.3 |
| 20260506015848 | 14 | 205 | 11.3 | 20.9 | 0.00 | 0.23 | 0.23 | 80 | 1016.2 |
| 20260506015345 | 14 | 268 | 11.3 | 25.7 | 0.00 | 0.23 | 0.23 | 79 | 1016.2 |
| 20260506014842 | 15 | 199 | 12.9 | 22.5 | 0.00 | 0.23 | 0.23 | 77 | 1016.2 |
| 20260506014339 | 15 | 234 | 8.0 | 19.3 | 0.00 | 0.23 | 0.23 | 75 | 1016.4 |
| 20260506013835 | 16 | 257 | 11.3 | 16.1 | 0.00 | 0.23 | 0.23 | 73 | 1015.9 |
| 20260506013333 | 15 | 283 | 6.4 | 12.9 | 0.00 | 0.23 | 0.23 | 74 | 1016.3 |
| 20260506012829 | 15 | 277 | 6.4 | 20.9 | 0.00 | 0.23 | 0.23 | 74 | 1016.4 |
| 20260506012326 | 16 | 257 | 11.3 | 14.5 | 0.00 | 0.23 | 0.23 | 71 | 1016.2 |
| 20260506011824 | 16 | 248 | 6.4 | 11.3 | 0.00 | 0.23 | 0.23 | 73 | 1016.2 |
| 20260506011320 | 15 | 227 | 3.2 | 17.7 | 0.00 | 0.23 | 0.23 | 75 | 1016.3 |
| 20260506010818 | 16 | 259 | 16.1 | 17.7 | 0.00 | 0.23 | 0.23 | 72 | 1016.4 |
| 20260506010315 | 16 | 214 | 8.0 | 11.3 | 0.00 | 0.23 | 0.23 | 72 | 1016.2 |
| 20260506005812 | 15 | 235 | 20.9 | 25.7 | 0.00 | 0.23 | 0.23 | 72 | 1016.2 |
| 20260506005309 | 16 | 222 | 16.1 | 19.3 | 0.00 | 0.23 | 0.23 | 70 | 1016.1 |
| 20260506004805 | 16 | 325 | 3.2 | 16.1 | 0.00 | 0.23 | 0.23 | 70 | 1016.0 |
| 20260506004303 | 16 | 184 | 4.8 | 17.7 | 0.00 | 0.23 | 0.23 | 71 | 1016.2 |
| 20260506003759 | 16 | 251 | 14.5 | 19.3 | 0.00 | 0.23 | 0.23 | 70 | 1016.1 |
| 20260506003256 | 15 | 309 | 8.0 | 22.5 | 0.00 | 0.23 | 0.23 | 72 | 1016.0 |
| 20260506002751 | 15 | 230 | 4.8 | 12.9 | 0.00 | 0.23 | 0.23 | 74 | 1016.1 |
| 20260506002248 | 15 | 237 | 9.7 | 14.5 | 0.00 | 0.23 | 0.23 | 72 | 1016.0 |
| 20260506001744 | 15 | 191 | 6.4 | 14.5 | 0.00 | 0.23 | 0.23 | 72 | 1015.8 |
| 20260506001241 | 15 | 230 | 12.9 | 22.5 | 0.00 | 0.23 | 0.23 | 72 | 1015.8 |
| 20260506000738 | 16 | 202 | 17.7 | 24.1 | 0.00 | 0.23 | 0.23 | 70 | 1015.8 |
| 20260506000236 | 15 | 227 | 12.9 | 17.7 | 0.00 | 0.23 | 0.23 | 71 | 1015.9 |
| 20260505235732 | 15 | 175 | 4.8 | 24.1 | 0.00 | 0.23 | 0.23 | 72 | 1015.8 |
| 20260505235230 | 15 | 257 | 6.4 | 19.3 | 0.00 | 0.23 | 0.23 | 71 | 1015.9 |
| 20260505234727 | 16 | 235 | 3.2 | 20.9 | 0.00 | 0.23 | 0.23 | 70 | 1015.8 |
| 20260505234224 | 16 | 311 | 3.2 | 25.7 | 0.00 | 0.23 | 0.23 | 70 | 1015.9 |
| 20260505233721 | 16 | 247 | 8.0 | 17.7 | 0.00 | 0.23 | 0.23 | 71 | 1016.0 |
| 20260505233219 | 16 | 200 | 8.0 | 11.3 | 0.00 | 0.23 | 0.23 | 71 | 1015.9 |
| 20260505232716 | 16 | 254 | 3.2 | 12.9 | 0.00 | 0.23 | 0.23 | 70 | 1015.8 |
| 20260505232213 | 16 | 29 | 3.2 | 17.7 | 0.00 | 0.23 | 0.23 | 70 | 1015.9 |
| 20260505231710 | 16 | 198 | 9.7 | 20.9 | 0.00 | 0.23 | 0.23 | 69 | 1016.0 |
| 20260505231209 | 16 | 239 | 16.1 | 29.0 | 0.00 | 0.23 | 0.23 | 68 | 1015.9 |
| 20260505230706 | 16 | 264 | 14.5 | 20.9 | 0.00 | 0.23 | 0.23 | 69 | 1015.6 |
| 20260505230203 | 16 | 223 | 9.7 | 27.4 | 0.00 | 0.23 | 0.23 | 70 | 1015.8 |
| 20260505225659 | 16 | 228 | 9.7 | 24.1 | 0.00 | 0.23 | 0.23 | 70 | 1015.6 |
| 20260505225156 | 16 | 203 | 9.7 | 29.0 | 0.00 | 0.23 | 0.23 | 70 | 1015.8 |
| 20260505224651 | 16 | 233 | 9.7 | 11.3 | 0.00 | 0.23 | 0.23 | 69 | 1015.9 |
| 20260505224150 | 16 | 315 | 6.4 | 14.5 | 0.00 | 0.23 | 0.23 | 70 | 1015.8 |
| 20260505223647 | 16 | 279 | 6.4 | 16.1 | 0.00 | 0.23 | 0.23 | 68 | 1016.0 |
| 20260505223142 | 16 | 295 | 6.4 | 19.3 | 0.00 | 0.23 | 0.23 | 70 | 1016.0 |
| 20260505222638 | 16 | 261 | 14.5 | 17.7 | 0.00 | 0.23 | 0.23 | 68 | 1016.2 |
| 20260505222135 | 16 | 238 | 12.9 | 20.9 | 0.00 | 0.23 | 0.23 | 68 | 1016.0 |
| 20260505221631 | 16 | 299 | 19.3 | 24.1 | 0.00 | 0.23 | 0.23 | 68 | 1016.0 |
| 20260505221128 | 16 | 319 | 6.4 | 20.9 | 0.00 | 0.23 | 0.23 | 68 | 1016.0 |
| 20260505220626 | 16 | 229 | 16.1 | 19.3 | 0.00 | 0.23 | 0.23 | 68 | 1016.0 |
| 20260505220123 | 17 | 318 | 6.4 | 12.9 | 0.00 | 0.23 | 0.23 | 68 | 1016.1 |
| 20260505215621 | 16 | 259 | 8.0 | 20.9 | 0.00 | 0.23 | 0.23 | 68 | 1016.1 |
| 20260505215119 | 16 | 212 | 17.7 | 25.7 | 0.00 | 0.23 | 0.23 | 69 | 1016.2 |
| 20260505214617 | 16 | 229 | 9.7 | 16.1 | 0.00 | 0.23 | 0.23 | 69 | 1016.2 |
| 20260505214114 | 16 | 239 | 9.7 | 24.1 | 0.00 | 0.23 | 0.23 | 68 | 1016.4 |
| 20260505213612 | 16 | 281 | 3.2 | 17.7 | 0.00 | 0.23 | 0.23 | 69 | 1016.3 |
| 20260505213108 | 16 | 252 | 16.1 | 20.9 | 0.00 | 0.23 | 0.23 | 68 | 1016.3 |
| 20260505212604 | 16 | 232 | 11.3 | 20.9 | 0.00 | 0.23 | 0.23 | 70 | 1016.2 |
| 20260505212102 | 16 | 224 | 8.0 | 22.5 | 0.00 | 0.23 | 0.23 | 68 | 1016.2 |
| 20260505211558 | 16 | 278 | 3.2 | 17.7 | 0.00 | 0.23 | 0.23 | 67 | 1016.4 |
| 20260505211055 | 16 | 302 | 9.7 | 14.5 | 0.00 | 0.23 | 0.23 | 67 | 1016.4 |
| 20260505210551 | 16 | 257 | 11.3 | 17.7 | 0.00 | 0.23 | 0.23 | 67 | 1016.5 |
| 20260505210049 | 16 | 278 | 9.7 | 16.1 | 0.00 | 0.23 | 0.23 | 66 | 1016.2 |
| 20260505205546 | 16 | 273 | 12.9 | 24.1 | 0.00 | 0.23 | 0.23 | 67 | 1016.4 |
| 20260505205044 | 17 | 268 | 9.7 | 20.9 | 0.00 | 0.23 | 0.23 | 67 | 1016.4 |
| 20260505204541 | 16 | 261 | 14.5 | 24.1 | 0.00 | 0.23 | 0.23 | 66 | 1016.6 |
| 20260505204038 | 16 | 308 | 11.3 | 17.7 | 0.00 | 0.23 | 0.23 | 67 | 1016.4 |
| 20260505203529 | 16 | 229 | 12.9 | 19.3 | 0.00 | 0.23 | 0.23 | 68 | 1016.2 |
| 20260505203027 | 16 | 272 | 6.4 | 19.3 | 0.00 | 0.23 | 0.23 | 67 | 1016.5 |
| 20260505202523 | 16 | 311 | 16.1 | 17.7 | 0.00 | 0.23 | 0.23 | 65 | 1016.5 |
| 20260505202019 | 16 | 316 | 8.0 | 17.7 | 0.00 | 0.23 | 0.23 | 67 | 1016.5 |
| 20260505201516 | 16 | 215 | 6.4 | 19.3 | 0.00 | 0.23 | 0.23 | 67 | 1016.4 |
| 20260505201013 | 16 | 276 | 14.5 | 20.9 | 0.00 | 0.23 | 0.23 | 66 | 1016.4 |
| 20260505200511 | 16 | 230 | 14.5 | 20.9 | 0.00 | 0.23 | 0.23 | 67 | 1016.4 |
| 20260505200008 | 16 | 255 | 12.9 | 22.5 | 0.00 | 0.23 | 0.23 | 68 | 1016.4 |
| 20260505195503 | 16 | 296 | 1.6 | 20.9 | 0.00 | 0.23 | 0.23 | 69 | 1016.2 |
| 20260505195000 | 16 | 291 | 14.5 | 16.1 | 0.00 | 0.23 | 0.23 | 68 | 1016.3 |
| 20260505194458 | 16 | 238 | 11.3 | 16.1 | 0.00 | 0.23 | 0.23 | 68 | 1016.5 |
| 20260505193958 | 16 | 354 | 6.4 | 17.7 | 0.00 | 0.23 | 0.23 | 67 | 1016.7 |
| 20260505193456 | 16 | 242 | 3.2 | 14.5 | 0.00 | 0.23 | 0.23 | 68 | 1016.6 |
| 20260505192953 | 16 | 263 | 17.7 | 24.1 | 0.00 | 0.23 | 0.23 | 68 | 1016.5 |
| 20260505192451 | 15 | 319 | 6.4 | 22.5 | 0.00 | 0.23 | 0.23 | 72 | 1016.6 |
| 20260505191948 | 16 | 258 | 6.4 | 14.5 | 0.00 | 0.23 | 0.23 | 69 | 1016.5 |
| 20260505191447 | 16 | 285 | 8.0 | 20.9 | 0.00 | 0.23 | 0.23 | 70 | 1016.6 |
| 20260505190943 | 16 | 290 | 12.9 | 16.1 | 0.00 | 0.23 | 0.23 | 71 | 1016.5 |
| 20260505190438 | 15 | 256 | 4.8 | 19.3 | 0.00 | 0.23 | 0.23 | 72 | 1016.4 |
| 20260505185934 | 15 | 258 | 20.9 | 20.9 | 0.00 | 0.23 | 0.23 | 72 | 1016.3 |
| 20260505185432 | 15 | 342 | 6.4 | 22.5 | 0.00 | 0.23 | 0.23 | 72 | 1016.4 |
| 20260505184928 | 15 | 350 | 11.3 | 12.9 | 0.00 | 0.23 | 0.23 | 74 | 1016.4 |
| 20260505184425 | 15 | 234 | 6.4 | 11.3 | 0.00 | 0.23 | 0.23 | 73 | 1016.4 |
| 20260505183922 | 15 | 198 | 6.4 | 12.9 | 0.00 | 0.23 | 0.23 | 75 | 1016.4 |
| 20260505183419 | 16 | 296 | 11.3 | 14.5 | 0.00 | 0.23 | 0.23 | 74 | 1016.5 |
| 20260505182915 | 15 | 345 | 4.8 | 17.7 | 0.00 | 0.23 | 0.23 | 75 | 1016.5 |
| 20260505182412 | 15 | 333 | 3.2 | 16.1 | 0.00 | 0.23 | 0.23 | 76 | 1016.6 |
| 20260505181908 | 15 | 348 | 4.8 | 12.9 | 0.00 | 0.23 | 0.23 | 76 | 1016.4 |
| 20260505181406 | 15 | 45 | 0.0 | 4.8 | 0.00 | 0.23 | 0.23 | 77 | 1016.3 |
| 20260505180902 | 15 | 277 | 4.8 | 9.7 | 0.00 | 0.23 | 0.23 | 78 | 1016.3 |
| 20260505180354 | 15 | 132 | 0.0 | 6.4 | 0.00 | 0.23 | 0.23 | 79 | 1016.1 |
| 20260505175850 | 15 | 296 | 3.2 | 8.0 | 0.00 | 0.23 | 0.23 | 80 | 1016.3 |
| 20260505175347 | 14 | 103 | 0.0 | 4.8 | 0.00 | 0.23 | 0.23 | 81 | 1016.3 |
| 20260505174843 | 14 | 208 | 3.2 | 16.1 | 0.00 | 0.23 | 0.23 | 80 | 1016.2 |
| 20260505174341 | 14 | 224 | 0.0 | 11.3 | 0.00 | 0.23 | 0.23 | 81 | 1016.1 |
| 20260505173837 | 13 | 131 | 3.2 | 14.5 | 0.00 | 0.23 | 0.23 | 81 | 1015.9 |
| 20260505173333 | 13 | 284 | 3.2 | 9.7 | 0.00 | 0.23 | 0.23 | 81 | 1016.0 |
| 20260505172830 | 13 | 299 | 0.0 | 8.0 | 0.00 | 0.23 | 0.23 | 82 | 1016.1 |
| 20260505172328 | 13 | 9 | 3.2 | 6.4 | 0.00 | 0.23 | 0.23 | 83 | 1016.1 |
| 20260505171827 | 13 | 302 | 3.2 | 8.0 | 0.00 | 0.23 | 0.23 | 83 | 1016.0 |
| 20260505171324 | 13 | 356 | 12.9 | 14.5 | 0.00 | 0.23 | 0.23 | 83 | 1016.2 |
| 20260505170821 | 13 | 56 | 4.8 | 9.7 | 0.00 | 0.23 | 0.23 | 84 | 1015.8 |
| 20260505170318 | 13 | 69 | 1.6 | 8.0 | 0.00 | 0.23 | 0.23 | 85 | 1016.1 |
| 20260505165813 | 13 | 265 | 9.7 | 11.3 | 0.00 | 0.23 | 0.23 | 85 | 1016.0 |
| 20260505165309 | 13 | 276 | 6.4 | 9.7 | 0.00 | 0.23 | 0.23 | 85 | 1015.9 |
| 20260505164804 | 13 | 269 | 8.0 | 12.9 | 0.00 | 0.23 | 0.23 | 86 | 1016.2 |
| 20260505164302 | 13 | 257 | 3.2 | 11.3 | 0.00 | 0.23 | 0.23 | 86 | 1015.9 |
| 20260505163800 | 13 | 246 | 8.0 | 16.1 | 0.00 | 0.23 | 0.23 | 87 | 1016.0 |
| 20260505163258 | 13 | 221 | 6.4 | 12.9 | 0.00 | 0.23 | 0.23 | 87 | 1016.1 |
| 20260505162756 | 13 | 236 | 3.2 | 6.4 | 0.00 | 0.23 | 0.23 | 88 | 1016.0 |
| 20260505162252 | 13 | 42 | 0.0 | 6.4 | 0.00 | 0.23 | 0.23 | 88 | 1015.8 |
| 20260505161749 | 13 | 287 | 3.2 | 6.4 | 0.00 | 0.23 | 0.23 | 87 | 1016.0 |
| 20260505161247 | 12 | 181 | 3.2 | 4.8 | 0.00 | 0.23 | 0.23 | 88 | 1016.0 |
| 20260505160744 | 12 | 230 | 0.0 | 4.8 | 0.00 | 0.23 | 0.23 | 88 | 1015.8 |
| 20260505160242 | 12 | 337 | 6.4 | 6.4 | 0.00 | 0.23 | 0.23 | 88 | 1015.8 |
| 20260505153221 | 12 | 183 | 6.4 | 9.7 | 0.00 | 0.23 | 0.23 | 89 | 1015.7 |
| 20260505152718 | 12 | 293 | 9.7 | 9.7 | 0.00 | 0.23 | 0.23 | 89 | 1015.5 |
| 20260505152214 | 12 | 329 | 3.2 | 9.7 | 0.00 | 0.23 | 0.23 | 88 | 1015.6 |
| 20260505151709 | 12 | 212 | 6.4 | 6.4 | 0.00 | 0.23 | 0.23 | 88 | 1015.5 |
| 20260505151207 | 12 | 135 | 0.0 | 4.8 | 0.00 | 0.23 | 0.23 | 88 | 1015.3 |
| 20260505150702 | 12 | 205 | 4.8 | 12.9 | 0.00 | 0.23 | 0.23 | 88 | 1015.2 |
| 20260505150200 | 12 | 240 | 9.7 | 12.9 | 0.00 | 0.23 | 0.23 | 87 | 1015.3 |
| 20260505140633 | 12 | 169 | 3.2 | 4.8 | 0.00 | 0.23 | 0.23 | 88 | 1015.0 |
| 20260505140130 | 12 | 212 | 3.2 | 12.9 | 0.00 | 0.23 | 0.23 | 87 | 1015.2 |
| 20260505124544 | 12 | 163 | 4.8 | 8.0 | 0.00 | 0.23 | 0.23 | 84 | 1014.8 |
| 20260505124040 | 12 | 164 | 14.5 | 16.1 | 0.00 | 0.23 | 0.23 | 84 | 1014.7 |
| 20260505123537 | 12 | 134 | 6.4 | 11.3 | 0.00 | 0.23 | 0.23 | 84 | 1014.9 |
| 20260505123033 | 12 | 196 | 3.2 | 17.7 | 0.00 | 0.23 | 0.23 | 84 | 1014.8 |
| 20260505122530 | 12 | 219 | 12.9 | 16.1 | 0.00 | 0.23 | 0.23 | 84 | 1014.6 |
| 20260505122027 | 12 | 234 | 20.9 | 22.5 | 0.00 | 0.23 | 0.23 | 84 | 1014.7 |
| 20260505121523 | 12 | 221 | 8.0 | 16.1 | 0.00 | 0.23 | 0.23 | 83 | 1014.7 |
| 20260505121020 | 12 | 217 | 9.7 | 16.1 | 0.00 | 0.23 | 0.23 | 83 | 1014.5 |
| 20260505120516 | 12 | 190 | 3.2 | 9.7 | 0.00 | 0.23 | 0.23 | 83 | 1014.6 |
| 20260505120012 | 12 | 163 | 4.8 | 6.4 | 0.00 | 0.23 | 0.23 | 83 | 1014.6 |
| 20260505115507 | 12 | 159 | 8.0 | 8.0 | 0.00 | 0.23 | 0.23 | 82 | 1014.5 |
| 20260505115005 | 11 | 139 | 4.8 | 4.8 | 0.00 | 0.23 | 0.23 | 82 | 1014.6 |
| 20260505114502 | 11 | 240 | 6.4 | 6.4 | 0.00 | 0.23 | 0.23 | 82 | 1014.7 |
| 20260505113958 | 12 | 175 | 4.8 | 9.7 | 0.00 | 0.23 | 0.23 | 81 | 1014.7 |
| 20260505113455 | 12 | 202 | 3.2 | 8.0 | 0.00 | 0.23 | 0.23 | 81 | 1015.1 |
| 20260505112950 | 12 | 231 | 6.4 | 17.7 | 0.00 | 0.23 | 0.23 | 80 | 1014.9 |
| 20260505112448 | 12 | 228 | 6.4 | 14.5 | 0.00 | 0.23 | 0.23 | 79 | 1014.8 |
| 20260505111944 | 12 | 188 | 6.4 | 16.1 | 0.00 | 0.23 | 0.23 | 78 | 1015.0 |
| 20260505111438 | 12 | 194 | 4.8 | 14.5 | 0.00 | 0.23 | 0.23 | 77 | 1015.0 |
| 20260505110935 | 11 | 220 | 6.4 | 19.3 | 0.00 | 0.23 | 0.23 | 78 | 1014.7 |
| 20260505110432 | 11 | 224 | 14.5 | 16.1 | 0.00 | 0.23 | 0.23 | 80 | 1014.8 |
| 20260505101902 | 11 | 207 | 8.0 | 14.5 | 0.00 | 0.23 | 0.23 | 82 | 1014.8 |
| 20260505101358 | 11 | 232 | 11.3 | 17.7 | 0.00 | 0.23 | 0.23 | 85 | 1015.0 |
| 20260505100854 | 11 | 195 | 3.2 | 6.4 | 0.00 | 0.23 | 0.23 | 87 | 1015.0 |
| 20260505100350 | 11 | 211 | 3.2 | 6.4 | 0.00 | 0.23 | 0.23 | 88 | 1015.1 |
| 20260505095846 | 11 | 279 | 6.4 | 9.7 | 0.00 | 0.23 | 0.23 | 88 | 1015.0 |
| 20260505095344 | 11 | 204 | 6.4 | 8.0 | 0.00 | 0.23 | 0.23 | 88 | 1014.9 |
| 20260505094840 | 12 | 199 | 4.8 | 6.4 | 0.00 | 0.23 | 0.23 | 89 | 1015.3 |
| 20260505094337 | 12 | 218 | 3.2 | 8.0 | 0.05 | 0.23 | 0.23 | 88 | 1015.1 |
| 20260505093832 | 12 | 164 | 3.2 | 4.8 | 0.00 | 0.20 | 0.20 | 88 | 1015.3 |
| 20260505093330 | 12 | 212 | 4.8 | 6.4 | 0.00 | 0.20 | 0.20 | 87 | 1015.1 |
| 20260505092827 | 12 | 200 | 6.4 | 9.7 | 0.00 | 0.20 | 0.20 | 87 | 1015.3 |
| 20260505092325 | 12 | 223 | 4.8 | 11.3 | 0.00 | 0.20 | 0.20 | 87 | 1015.3 |
| 20260505091822 | 11 | 215 | 6.4 | 11.3 | 0.00 | 0.20 | 0.20 | 87 | 1015.5 |
| 20260505091320 | 11 | 199 | 8.0 | 11.3 | 0.05 | 0.20 | 0.20 | 87 | 1015.5 |
| 20260505090818 | 11 | 222 | 6.4 | 12.9 | 0.05 | 0.20 | 0.20 | 87 | 1015.7 |
| 20260505090316 | 11 | 201 | 4.8 | 16.1 | 0.00 | 0.20 | 0.20 | 88 | 1015.7 |
| 20260505085813 | 11 | 213 | 4.8 | 14.5 | 0.00 | 0.20 | 0.20 | 88 | 1015.4 |
| 20260505085310 | 11 | 231 | 3.2 | 11.3 | 0.00 | 0.20 | 0.20 | 88 | 1015.7 |